Rbgn^[z[y[W
メイン
   新天体発見情報
     Comet P/2021 C2 (PANSTARRS)
投稿するにはまず登録を

スレッド表示 | 古いものから 前のトピック | 次のトピック | 下へ
投稿者 スレッド
佐藤裕久
投稿日時: 2021-3-13 12:19
モデレータ
登録日: 2005-6-12
居住地: 日本
投稿: 2212
オンライン
Comet P/2021 C2 (PANSTARRS)

Yudish Ramanjooloo ((ハワイ大学天文学研究所)は、2月12日UT、HaleakalaにあるPan-
STARRS1 1.8-m Ritchey-Chretien反射望遠鏡で得た45秒4枚のw-バンド露出で彗星を
発見した。1".1-1".4のシーイングて非常に集光した1".5 (半値全幅:FWHM)のコマと
p.a. 252°に5".4の薄く真直ぐな尾があった。2月16.4日、追加した45秒4枚のw-バンド
Pan-STARRS1 露出では、およそ1"のシーイングで2".1 (FWHM)の大変集光した頭部と、
p.a. 263°に向かって6"の長さ、1".6の広さの尾が見える。
小惑星センターのPCCP webpageに公表後、佐藤英貴氏(東京都文京区, 2月19.2日, 120秒
露出20枚のスタック, 0.43-m f/6.8 アストログラフ, Mayhill近郊, ニューメキシコ州, 
遠隔操作: 星状の頭部を見い出し、p.a. 90°に向かって5"の尾らしいものがある。3".8
の円形範囲で測定した光度は21.5等であった)らCCD位置観測者によって彗星状と観測された。

彗星機能の報告は次の通り:

OC   Date        Reporter           Coma    Tail    PA          Exposures
568  2021-02-14  R. Weryk           0".3    4"     270            3x60s  
568  2021-02-15  R. Weryk           0".35   4"     270            3x60s
F51  2021-02-16  Y. Ramanjooloo     2".1    6"     263            4x45s
H06  2021-02-19  H. Sato            4"      5"      90           20x120s

発見位置は次のとおり、

     2021 UT             R.A. (2000) Decl.       Mag.
     Feb. 12.52872   10 23 50.86   +38 41 32.0   22.1
          12.53842   10 23 50.55   +38 41 34.0   21.7
          12.54810   10 23 50.25   +38 41 36.0   21.8
          12.55784   10 23 49.92   +38 41 37.9   21.8

MPCの楕円軌道要素、位置推算表は次のとおり、

Orbital elements:
    P/2021 C2 (PANSTARRS)                                                       
Epoch 2021 Mar. 7.0 TT = JDT 2459280.5                                          
T 2021 Feb. 28.97135 TT                                 Rudenko                 
q   4.8898685            (2000.0)            P               Q                  
n   0.03345786     Peri.   79.34081     -0.76193021     -0.54981269             
a   9.5382924      Node    66.45971     +0.34369626     -0.79120881             
e   0.4873434      Incl.   21.92365     +0.54894011     -0.26775851             
P  29.5                                                                         
From 27 observations 2021 Jan. 17-Feb. 19, mean residual 0".3.                  
                                                                                
    P/2021 C2 (PANSTARRS)                                                       
Epoch 2050 Oct. 1.0 TT = JDT 2470080.5                                          
T 2050 Sept. 14.99695 TT                                Rudenko                 
q   4.8535669            (2000.0)            P               Q                  
n   0.03270402     Peri.   81.19829     -0.77157366     -0.54309599             
a   9.6843079      Node    65.25138     +0.33753771     -0.79087945             
e   0.4988215      Incl.   21.39169     +0.53920533     -0.28205752             
P  30.1                                                                         
From 27 observations 2021 Jan. 17-Feb. 19, mean residual 0".3.                  
                                                                                
    P/2021 C2 (PANSTARRS)                                                       
Epoch 2020 Dec. 17.0 TT = JDT 2459200.5                                         
T 2021 Mar. 1.06209 TT                                  Rudenko                 
q   4.8898500            (2000.0)            P               Q                  
n   0.03345005     Peri.   79.34744     -0.76202756     -0.54966812             
a   9.5397763      Node    66.46356     +0.34355449     -0.79128309             
e   0.4874251      Incl.   21.92402     +0.54889371     -0.26783581             
P  29.5                                                                         
From 27 observations 2021 Jan. 17-Feb. 19, mean residual 0".3.                  
                                                                                
Ephemeris:
Date    TT    R. A. (2000) Decl.     Delta      r    Elong.  Phase   m1
2021 01 25    10 32 05.0 +37 21 27   4.0343  4.8936   147.5     6.2  21.9
...
2021 02 09    10 25 37.7 +38 28 43   3.9894  4.8911   153.3     5.2  21.9
...
2021 02 17    10 21 31.1 +38 55 38   3.9906  4.8903   152.8     5.3  21.9
...
2021 02 23    10 18 19.8 +39 10 33   4.0030  4.8900   150.7     5.7  21.9
2021 02 24    10 17 47.9 +39 12 34   4.0060  4.8899   150.3     5.8  21.9
2021 02 25    10 17 16.1 +39 14 26   4.0093  4.8899   149.8     5.8  21.9
...
2021 03 03    10 14 08.8 +39 22 42   4.0343  4.8899   146.3     6.5  21.9
...
2021 03 11    10 10 16.1 +39 25 41   4.0815  4.8902   140.6     7.4  21.9
...
2021 03 26    10 04 35.5 +39 06 54   4.2085  4.8918   128.5     9.2  22.0

(MPEC 2021-D103、CBET 4935)

スレッド表示 | 古いものから 前のトピック | 次のトピック | トップ

投稿するにはまず登録を
 
© 1999 Tsutomu Seki.